Regional Weather Roundup
Issued by NWS

Home | Current Version | Previous Version | Text Only | Print | Product List | Glossary Off
Versions: 1 2 3 4 5 6 7 8 9 10 11 12 13 14 15 16 17 18 19 20 21 22 23 24 25 26 27 28 29 30 31 32 33 34 35 36 37 38 39 40 41 42 43 44 45 46 47 48 49 50

000
ASUS43 KBIS 212102
RWRND

NORTH DAKOTA REGIONAL WEATHER ROUNDUP
NATIONAL WEATHER SERVICE BISMARCK ND
400 PM CDT MON AUG 21 2017

NOTE: "FAIR" INDICATES FEW OR NO CLOUDS BELOW 12,000 FEET WITH NO
SIGNIFICANT WEATHER AND/OR OBSTRUCTIONS TO VISIBILITY.


NDZ001>003-009>011-017-212200-
NORTHWEST NORTH DAKOTA

CITY           SKY/WX    TMP DP  RH WIND       PRES   REMARKS
WILLISTON      SUNNY     76  39  26 NW16G24   30.10S
MINOT          SUNNY     76  40  27 NW25G31   30.00S
MINOT AFB      MOSUNNY   75  38  25 NW22G29   29.99S
$$

NDZ018>021-031>035-040>046-212200-
SOUTHWEST NORTH DAKOTA

CITY           SKY/WX    TMP DP  RH WIND       PRES   REMARKS
BISMARCK       SUNNY     77  47  34 N20G28    30.00R
DICKINSON      SUNNY     74  41  30 NW22      30.08S
GARRISON         N/A     75  42  30 NW24G39   30.02R
HETTINGER ARPT SUNNY     76  41  28 N17G23    30.11R
$$

NDZ004>008-012>016-024-026-027-054-212200-
NORTHEAST NORTH DAKOTA

CITY           SKY/WX    TMP DP  RH WIND       PRES   REMARKS
GRAND FORKS    CLOUDY    75  57  53 NW7       29.87F
GRND FRKS AFB  MOSUNNY   73  55  53 W7        29.88F
DEVILS LAKE    MOSUNNY   70  55  59 NW13      29.93S
$$

NDZ022-023-025-028>030-036>039-047>053-212200-
SOUTHEAST NORTH DAKOTA

CITY           SKY/WX    TMP DP  RH WIND       PRES   REMARKS
FARGO          CLOUDY    74  61  63 NW8       29.86F
JAMESTOWN      MOSUNNY   74  59  59 NW15      29.90F
$$





USA.gov is the U.S. government's official web portal to all federal, state and local government web resources and services.